Regional Weather Roundup
Issued by NWS

Home | Current Version | Previous Version | Graphics & Text | Print | Product List | Glossary Off
Versions: 1 2 3 4 5 6 7 8 9 10 11 12 13 14 15 16 17 18 19 20 21 22 23 24 25 26 27 28 29 30 31 32 33 34 35 36 37 38 39 40 41 42 43 44 45 46 47 48 49 50

000
ASUS43 KTOP 301459
RWRKS

WEATHER ROUNDUP FOR KANSAS
NATIONAL WEATHER SERVICE GOODLAND KS
1000 AM CDT FRI SEP 30 2016

NOTE:  "FAIR" INDICATES FEW OR NO CLOUDS BELOW 12,000 FEET WITH NO
SIGNIFICANT WEATHER AND/OR OBSTRUCTIONS TO VISIBILITY.

KSZ001>006-013>018-027>032-041>047-301600-
NORTHWEST KANSAS

CITY           SKY/WX    TMP DP  RH WIND       PRES   REMARKS
GOODLAND       CLOUDY    54  44  69 S22       30.20F
HAYS           SUNNY     57  43  58 SE9       30.28S
HILL CITY      SUNNY     55  49  80 SE6       30.28F
$$

KSZ061>065-074>080-084>089-301600-
SOUTHWEST KANSAS

CITY           SKY/WX    TMP DP  RH WIND       PRES   REMARKS
DODGE CITY     SUNNY     61  48  62 S15       30.27S
ELKHART          N/A     57  43  59 SE15        N/A
GARDEN CITY    CLOUDY    60  46  59 S15G23    30.23F
GREAT BEND     SUNNY     57  46  67 SE3       30.28S
LIBERAL        SUNNY     61  48  63 SE13      30.25S
$$

KSZ066>073-081>083-090>101-301600-
SOUTHEAST KANSAS

CITY           SKY/WX    TMP DP  RH WIND       PRES   REMARKS
CHANUTE        SUNNY     62  53  72 N6        30.25R
COFFEYVILLE    SUNNY     62  53  72 N5        30.25S
HUTCHINSON     SUNNY     62  52  69 CALM      30.28F
MEDICINE LODGE   N/A     59  52  77 CALM      30.27F
NEWTON         SUNNY     62  53  72 N5        30.28F
PARSONS        SUNNY     63  54  72 N5        30.26R
WICHITA INTL   MOSUNNY   63  52  67 NE7       30.27F
WICHITA JABRA  SUNNY     63  54  72 N5        30.27S
WINFIELD       SUNNY     61  54  77 VRB3      30.28S
$$

KSZ007>012-019>026-033>040-048>060-102>105-301600-
NORTHEAST KANSAS

CITY           SKY/WX    TMP DP  RH WIND       PRES   REMARKS
CONCORDIA      SUNNY     59  52  77 E3        30.29S
EMPORIA        SUNNY     59  52  77 N3        30.26F
LAWRENCE       SUNNY     59  54  83 NW3       30.26S
MANHATTAN      SUNNY     59  54  83 S3        30.28F
OLATHE IND     SUNNY     59  53  80 NW5       30.26S
OLATHE EXE     SUNNY     61  52  72 VRB3      30.25R
SALINA         SUNNY     59  50  72 CALM      30.29F
TOPEKA BILLARD SUNNY     59  52  77 CALM      30.27S
TOPEKA FORBES  SUNNY     61  53  75 N7        30.26S
$$



USA.gov is the U.S. government's official web portal to all federal, state and local government web resources and services.